Time,TemperatureF,DewpointF,PressureIn,WindDirection,WindDirectionDegrees,WindSpeedMPH,WindSpeedGustMPH,Humidity,HourlyPrecipIn,Conditions,Clouds,dailyrainin,SoftwareType,DateUTC
2013-03-10 00:01:00,54.0,44.0,29.70,South,180,8.0,13.0,69,-99.99,,,-99.99,,2013-03-10 06:01:00,
2013-03-10 00:11:00,55.0,43.0,29.69,South,180,9.0,13.0,65,-99.99,,,-99.99,,2013-03-10 06:11:00,
2013-03-10 00:22:00,56.0,45.0,29.70,South,180,7.0,11.0,66,-99.99,,,-99.99,,2013-03-10 06:22:00,
2013-03-10 00:32:00,56.0,45.0,29.70,SSE,157,7.0,14.0,67,-99.99,,,-99.99,,2013-03-10 06:32:00,
2013-03-10 00:42:00,56.0,46.0,29.70,South,180,8.0,14.0,70,-99.99,,,-99.99,,2013-03-10 06:42:00,
2013-03-10 00:51:00,56.0,48.0,29.71,SSW,202,11.0,16.0,75,-99.99,,,-99.99,,2013-03-10 06:51:00,
2013-03-10 01:01:00,55.0,49.0,29.72,SSW,202,10.0,16.0,82,-99.99,,,-99.99,,2013-03-10 07:01:00,
2013-03-10 01:11:00,54.0,50.0,29.71,SSW,202,9.0,14.0,88,-99.99,,,-99.99,,2013-03-10 07:11:00,
2013-03-10 01:21:00,54.0,51.0,29.72,South,180,10.0,18.0,91,-99.99,,,-99.99,,2013-03-10 07:21:00,
2013-03-10 01:31:00,54.0,52.0,29.72,South,180,7.0,13.0,94,-99.99,,,-99.99,,2013-03-10 07:31:00,
2013-03-10 01:42:00,54.0,52.0,29.72,South,180,8.0,13.0,95,-99.99,,,-99.99,,2013-03-10 07:42:00,
2013-03-10 01:52:00,54.0,53.0,29.72,SSE,157,9.0,14.0,97,-99.99,,,-99.99,,2013-03-10 07:52:00,
2013-03-10 03:01:00,54.0,53.0,29.71,South,180,7.0,12.0,98,-99.99,,,-99.99,,2013-03-10 08:01:00,
2013-03-10 03:11:00,53.0,53.0,29.70,SSE,157,7.0,12.0,98,-99.99,,,-99.99,,2013-03-10 08:11:00,
2013-03-10 03:21:00,53.0,53.0,29.70,SSW,202,7.0,12.0,98,-99.99,,,-99.99,,2013-03-10 08:21:00,
2013-03-10 03:31:00,53.0,53.0,29.69,SSE,157,5.0,8.0,99,-99.99,,,-99.99,,2013-03-10 08:31:00,
2013-03-10 03:42:00,53.0,53.0,29.68,SE,135,8.0,11.0,99,-99.99,,,-99.99,,2013-03-10 08:42:00,
2013-03-10 03:51:00,53.0,53.0,29.67,SE,135,10.0,14.0,99,-99.99,,,-99.99,,2013-03-10 08:51:00,
2013-03-10 04:01:00,53.0,53.0,29.66,SE,135,9.0,13.0,99,-99.99,,,-99.99,,2013-03-10 09:01:00,
2013-03-10 04:11:00,54.0,53.0,29.65,SE,135,12.0,17.0,99,-99.99,,,-99.99,,2013-03-10 09:11:00,
2013-03-10 04:21:00,54.0,53.0,29.64,SSE,157,11.0,15.0,98,-99.99,,,-99.99,,2013-03-10 09:21:00,
2013-03-10 04:31:00,54.0,53.0,29.64,SSE,157,10.0,14.0,97,-99.99,,,-99.99,,2013-03-10 09:31:00,
2013-03-10 04:41:00,54.0,53.0,29.65,SSE,157,10.0,14.0,96,-99.99,,,-99.99,,2013-03-10 09:41:00,
2013-03-10 04:51:00,54.0,53.0,29.64,SSE,157,12.0,18.0,95,-99.99,,,-99.99,,2013-03-10 09:51:00,
2013-03-10 05:01:00,54.0,52.0,29.64,South,180,10.0,17.0,95,-99.99,,,-99.99,,2013-03-10 10:01:00,
2013-03-10 05:11:00,54.0,52.0,29.63,SSE,157,11.0,18.0,94,-99.99,,,-99.99,,2013-03-10 10:11:00,
2013-03-10 05:21:00,54.0,52.0,29.63,SSE,157,9.0,13.0,94,-99.99,,,-99.99,,2013-03-10 10:21:00,
2013-03-10 05:32:00,54.0,52.0,29.63,South,180,10.0,14.0,94,-99.99,,,-99.99,,2013-03-10 10:32:00,
2013-03-10 05:41:00,54.0,52.0,29.62,SSE,157,10.0,14.0,94,-99.99,,,-99.99,,2013-03-10 10:41:00,
2013-03-10 05:51:00,54.0,52.0,29.61,SSE,157,11.0,17.0,93,-99.99,,,-99.99,,2013-03-10 10:51:00,
2013-03-10 06:01:00,54.0,52.0,29.63,South,180,10.0,16.0,93,-99.99,,,-99.99,,2013-03-10 11:01:00,
2013-03-10 06:11:00,54.0,52.0,29.66,South,180,9.0,15.0,93,-99.99,,,-99.99,,2013-03-10 11:11:00,
2013-03-10 06:21:00,54.0,52.0,29.66,SSW,202,7.0,12.0,93,-99.99,,,-99.99,,2013-03-10 11:21:00,
2013-03-10 06:31:00,54.0,52.0,29.66,South,180,8.0,14.0,93,-99.99,,,-99.99,,2013-03-10 11:31:00,
2013-03-10 06:42:00,54.0,52.0,29.67,South,180,8.0,14.0,93,-99.99,,,-99.99,,2013-03-10 11:42:00,
2013-03-10 06:52:00,54.0,52.0,29.67,SSE,157,9.0,13.0,93,-99.99,,,-99.99,,2013-03-10 11:52:00,
2013-03-10 07:01:00,54.0,52.0,29.68,SSW,202,10.0,13.0,94,-99.99,,,-99.99,,2013-03-10 12:01:00,
2013-03-10 07:11:00,54.0,52.0,29.68,SSW,202,7.0,12.0,95,-99.99,,,-99.99,,2013-03-10 12:11:00,
2013-03-10 07:21:00,54.0,52.0,29.68,South,180,7.0,11.0,95,-99.99,,,-99.99,,2013-03-10 12:21:00,
2013-03-10 07:31:00,54.0,52.0,29.66,South,180,7.0,12.0,95,-99.99,,,-99.99,,2013-03-10 12:31:00,
2013-03-10 07:42:00,54.0,52.0,29.65,SSE,157,8.0,12.0,96,-99.99,,,-99.99,,2013-03-10 12:42:00,
2013-03-10 07:51:00,53.0,52.0,29.65,SSE,157,6.0,8.0,96,-99.99,,,-99.99,,2013-03-10 12:51:00,
2013-03-10 08:01:00,53.0,52.0,29.65,SSW,202,4.0,7.0,97,-99.99,,,-99.99,,2013-03-10 13:01:00,
2013-03-10 08:11:00,53.0,52.0,29.67,South,180,5.0,7.0,97,-99.99,,,-99.99,,2013-03-10 13:11:00,
2013-03-10 08:21:00,53.0,52.0,29.70,South,180,7.0,10.0,97,-99.99,,,-99.99,,2013-03-10 13:21:00,
2013-03-10 08:31:00,54.0,53.0,29.70,South,180,8.0,12.0,97,-99.99,,,-99.99,,2013-03-10 13:31:00,
2013-03-10 08:41:00,54.0,53.0,29.70,South,180,6.0,11.0,97,-99.99,,,-99.99,,2013-03-10 13:41:00,
2013-03-10 08:52:00,53.0,53.0,29.71,South,180,6.0,9.0,98,-99.99,,,-99.99,,2013-03-10 13:52:00,
2013-03-10 09:01:00,54.0,53.0,29.70,SSW,202,6.0,10.0,98,-99.99,,,-99.99,,2013-03-10 14:01:00,
2013-03-10 09:11:00,54.0,53.0,29.69,SW,225,5.0,8.0,98,-99.99,,,-99.99,,2013-03-10 14:11:00,
2013-03-10 09:21:00,54.0,53.0,29.69,SW,225,5.0,7.0,98,-99.99,,,-99.99,,2013-03-10 14:21:00,
2013-03-10 09:32:00,53.0,52.0,29.69,West,270,8.0,14.0,98,-99.99,,,-99.99,,2013-03-10 14:32:00,
2013-03-10 09:41:00,52.0,51.0,29.66,West,270,9.0,13.0,94,-99.99,,,-99.99,,2013-03-10 14:41:00,
2013-03-10 09:51:00,52.0,50.0,29.64,West,270,8.0,11.0,94,-99.99,,,-99.99,,2013-03-10 14:51:00,
2013-03-10 10:01:00,52.0,50.0,29.67,West,270,9.0,14.0,94,-99.99,,,-99.99,,2013-03-10 15:01:00,
2013-03-10 10:11:00,52.0,50.0,29.68,West,270,8.0,13.0,95,-99.99,,,-99.99,,2013-03-10 15:11:00,
2013-03-10 10:21:00,51.0,50.0,29.68,West,270,8.0,12.0,96,-99.99,,,-99.99,,2013-03-10 15:21:00,
2013-03-10 10:32:00,51.0,50.0,29.71,WSW,247,9.0,13.0,97,-99.99,,,-99.99,,2013-03-10 15:32:00,
2013-03-10 10:42:00,51.0,50.0,29.73,WSW,247,10.0,13.0,97,-99.99,,,-99.99,,2013-03-10 15:42:00,
2013-03-10 10:51:00,51.0,50.0,29.72,WSW,247,9.0,14.0,97,-99.99,,,-99.99,,2013-03-10 15:51:00,
2013-03-10 11:01:00,50.0,49.0,29.70,WSW,247,8.0,14.0,95,-99.99,,,-99.99,,2013-03-10 16:01:00,
2013-03-10 11:11:00,50.0,49.0,29.69,WSW,247,4.0,7.0,96,-99.99,,,-99.99,,2013-03-10 16:11:00,
2013-03-10 11:21:00,50.0,49.0,29.68,SW,225,4.0,6.0,97,-99.99,,,-99.99,,2013-03-10 16:21:00,
2013-03-10 11:31:00,50.0,49.0,29.68,WSW,247,4.0,6.0,97,-99.99,,,-99.99,,2013-03-10 16:31:00,
2013-03-10 11:41:00,50.0,49.0,29.69,WSW,247,5.0,8.0,98,-99.99,,,-99.99,,2013-03-10 16:41:00,
2013-03-10 11:51:00,49.0,49.0,29.69,SW,225,5.0,7.0,98,-99.99,,,-99.99,,2013-03-10 16:51:00,
2013-03-10 12:01:00,49.0,49.0,29.69,SW,225,7.0,9.0,98,-99.99,,,-99.99,,2013-03-10 17:01:00,
2013-03-10 12:11:00,49.0,49.0,29.69,SW,225,7.0,10.0,98,-99.99,,,-99.99,,2013-03-10 17:11:00,
2013-03-10 12:21:00,49.0,49.0,29.71,SW,225,8.0,12.0,98,-99.99,,,-99.99,,2013-03-10 17:21:00,
2013-03-10 12:31:00,49.0,49.0,29.70,SW,225,8.0,12.0,98,-99.99,,,-99.99,,2013-03-10 17:31:00,
2013-03-10 12:41:00,49.0,48.0,29.69,SW,225,7.0,12.0,98,-99.99,,,-99.99,,2013-03-10 17:41:00,
2013-03-10 12:51:00,49.0,49.0,29.67,SW,225,6.0,9.0,98,-99.99,,,-99.99,,2013-03-10 17:51:00,
2013-03-10 13:01:00,49.0,49.0,29.67,SW,225,5.0,8.0,98,-99.99,,,-99.99,,2013-03-10 18:01:00,
2013-03-10 13:11:00,49.0,48.0,29.68,SW,225,5.0,8.0,98,-99.99,,,-99.99,,2013-03-10 18:11:00,
2013-03-10 13:21:00,49.0,48.0,29.68,SSE,157,4.0,8.0,98,-99.99,,,-99.99,,2013-03-10 18:21:00,
2013-03-10 13:32:00,49.0,48.0,29.67,SSE,157,7.0,9.0,98,-99.99,,,-99.99,,2013-03-10 18:32:00,
2013-03-10 13:41:00,49.0,48.0,29.65,ESE,112,6.0,8.0,98,-99.99,,,-99.99,,2013-03-10 18:41:00,
2013-03-10 13:52:00,49.0,48.0,29.62,ESE,112,9.0,11.0,99,-99.99,,,-99.99,,2013-03-10 18:52:00,
2013-03-10 14:01:00,49.0,48.0,29.62,SE,135,11.0,16.0,99,-99.99,,,-99.99,,2013-03-10 19:01:00,
2013-03-10 14:11:00,49.0,48.0,29.60,SE,135,12.0,16.0,99,-99.99,,,-99.99,,2013-03-10 19:11:00,
2013-03-10 14:21:00,49.0,49.0,29.57,North,0,16.0,21.0,99,-99.99,,,-99.99,,2013-03-10 19:21:00,
2013-03-10 14:31:00,49.0,49.0,29.56,SE,135,16.0,22.0,99,-99.99,,,-99.99,,2013-03-10 19:31:00,
2013-03-10 14:42:00,49.0,48.0,29.58,SSE,157,8.0,15.0,98,-99.99,,,-99.99,,2013-03-10 19:42:00,
2013-03-10 14:52:00,49.0,49.0,29.60,WSW,247,8.0,11.0,98,-99.99,,,-99.99,,2013-03-10 19:52:00,
2013-03-10 15:02:00,50.0,49.0,29.60,SW,225,6.0,8.0,98,-99.99,,,-99.99,,2013-03-10 20:02:00,
2013-03-10 15:12:00,50.0,49.0,29.61,SSW,202,6.0,9.0,98,-99.99,,,-99.99,,2013-03-10 20:12:00,
2013-03-10 15:22:00,50.0,49.0,29.62,SW,225,5.0,10.0,98,-99.99,,,-99.99,,2013-03-10 20:22:00,
2013-03-10 15:32:00,50.0,50.0,29.62,SSW,202,6.0,12.0,97,-99.99,,,-99.99,,2013-03-10 20:32:00,
2013-03-10 15:42:00,51.0,50.0,29.61,South,180,6.0,8.0,98,-99.99,,,-99.99,,2013-03-10 20:42:00,
2013-03-10 15:52:00,52.0,51.0,29.61,South,180,7.0,12.0,97,-99.99,,,-99.99,,2013-03-10 20:52:00,
2013-03-10 16:02:00,52.0,50.0,29.61,SSW,202,8.0,11.0,95,-99.99,,,-99.99,,2013-03-10 21:02:00,
2013-03-10 16:12:00,53.0,51.0,29.61,South,180,7.0,11.0,93,-99.99,,,-99.99,,2013-03-10 21:12:00,
2013-03-10 16:22:00,53.0,50.0,29.61,SSW,202,8.0,13.0,91,-99.99,,,-99.99,,2013-03-10 21:22:00,
2013-03-10 16:32:00,53.0,50.0,29.61,SSW,202,7.0,11.0,90,-99.99,,,-99.99,,2013-03-10 21:32:00,
2013-03-10 16:42:00,54.0,50.0,29.61,WSW,247,9.0,13.0,88,-99.99,,,-99.99,,2013-03-10 21:42:00,
2013-03-10 17:02:00,54.0,49.0,29.61,SW,225,9.0,13.0,84,-99.99,,,-99.99,,2013-03-10 22:02:00,
2013-03-10 17:12:00,54.0,49.0,29.61,SW,225,9.0,14.0,83,-99.99,,,-99.99,,2013-03-10 22:12:00,
2013-03-10 17:22:00,53.0,47.0,29.61,SW,225,8.0,14.0,81,-99.99,,,-99.99,,2013-03-10 22:22:00,
2013-03-10 17:32:00,55.0,49.0,29.61,SSW,202,8.0,11.0,81,-99.99,,,-99.99,,2013-03-10 22:32:00,
2013-03-10 17:42:00,55.0,48.0,29.61,SSW,202,7.0,11.0,79,-99.99,,,-99.99,,2013-03-10 22:42:00,
2013-03-10 17:52:00,55.0,48.0,29.61,SSW,202,7.0,10.0,77,-99.99,,,-99.99,,2013-03-10 22:52:00,
2013-03-10 18:02:00,53.0,48.0,29.62,SSW,202,5.0,11.0,82,-99.99,,,-99.99,,2013-03-10 23:02:00,
2013-03-10 18:12:00,53.0,47.0,29.61,SSW,202,5.0,8.0,81,-99.99,,,-99.99,,2013-03-10 23:12:00,
2013-03-10 18:22:00,53.0,47.0,29.61,SW,225,6.0,8.0,81,-99.99,,,-99.99,,2013-03-10 23:22:00,
2013-03-10 18:32:00,53.0,47.0,29.62,SSW,202,4.0,6.0,82,-99.99,,,-99.99,,2013-03-10 23:32:00,
2013-03-10 18:42:00,52.0,49.0,29.62,SSW,202,5.0,8.0,90,-99.99,,,-99.99,,2013-03-10 23:42:00,
2013-03-10 18:52:00,49.0,47.0,29.64,West,270,12.0,18.0,91,-99.99,,,-99.99,,2013-03-10 23:52:00,
2013-03-10 19:02:00,49.0,47.0,29.64,West,270,9.0,13.0,93,-99.99,,,-99.99,,2013-03-11 00:02:00,
2013-03-10 19:12:00,49.0,47.0,29.64,NW,315,9.0,12.0,93,-99.99,,,-99.99,,2013-03-11 00:12:00,
2013-03-10 19:22:00,49.0,47.0,29.64,West,270,11.0,16.0,92,-99.99,,,-99.99,,2013-03-11 00:22:00,
2013-03-10 19:33:00,49.0,47.0,29.65,West,270,9.0,15.0,92,-99.99,,,-99.99,,2013-03-11 00:33:00,
2013-03-10 19:42:00,48.0,45.0,29.65,WSW,247,14.0,19.0,90,-99.99,,,-99.99,,2013-03-11 00:42:00,
2013-03-10 19:52:00,48.0,45.0,29.66,West,270,12.0,17.0,92,-99.99,,,-99.99,,2013-03-11 00:52:00,
2013-03-10 20:02:00,47.0,44.0,29.66,West,270,12.0,18.0,89,-99.99,,,-99.99,,2013-03-11 01:02:00,
2013-03-10 20:12:00,46.0,43.0,29.67,West,270,10.0,17.0,88,-99.99,,,-99.99,,2013-03-11 01:12:00,
2013-03-10 20:22:00,46.0,43.0,29.67,SW,225,12.0,18.0,87,-99.99,,,-99.99,,2013-03-11 01:22:00,
2013-03-10 20:32:00,46.0,43.0,29.68,West,270,12.0,17.0,89,-99.99,,,-99.99,,2013-03-11 01:32:00,
2013-03-10 20:42:00,45.0,42.0,29.68,WNW,292,11.0,18.0,91,-99.99,,,-99.99,,2013-03-11 01:42:00,
2013-03-10 20:52:00,43.0,41.0,29.69,West,270,13.0,26.0,92,-99.99,,,-99.99,,2013-03-11 01:52:00,
2013-03-10 21:02:00,43.0,41.0,29.70,WNW,292,11.0,18.0,94,-99.99,,,-99.99,,2013-03-11 02:02:00,
2013-03-10 21:12:00,42.0,40.0,29.71,West,270,13.0,18.0,90,-99.99,,,-99.99,,2013-03-11 02:12:00,
2013-03-10 21:22:00,42.0,39.0,29.70,West,270,13.0,20.0,89,-99.99,,,-99.99,,2013-03-11 02:22:00,
2013-03-10 21:32:00,42.0,39.0,29.70,WSW,247,10.0,15.0,89,-99.99,,,-99.99,,2013-03-11 02:32:00,
2013-03-10 21:42:00,42.0,39.0,29.72,WSW,247,9.0,11.0,90,-99.99,,,-99.99,,2013-03-11 02:42:00,
2013-03-10 21:52:00,41.0,39.0,29.72,West,270,8.0,12.0,92,-99.99,,,-99.99,,2013-03-11 02:52:00,
2013-03-10 22:02:00,41.0,38.0,29.72,West,270,12.0,17.0,93,-99.99,,,-99.99,,2013-03-11 03:02:00,
2013-03-10 22:12:00,40.0,38.0,29.72,WSW,247,11.0,17.0,92,-99.99,,,-99.99,,2013-03-11 03:12:00,
2013-03-10 22:22:00,40.0,38.0,29.72,West,270,10.0,15.0,93,-99.99,,,-99.99,,2013-03-11 03:22:00,
2013-03-10 22:32:00,40.0,38.0,29.72,West,270,11.0,14.0,93,-99.99,,,-99.99,,2013-03-11 03:32:00,
2013-03-10 22:42:00,39.0,38.0,29.72,WSW,247,12.0,18.0,94,-99.99,,,-99.99,,2013-03-11 03:42:00,
2013-03-10 22:52:00,39.0,38.0,29.73,WSW,247,12.0,17.0,95,-99.99,,,-99.99,,2013-03-11 03:52:00,
2013-03-10 23:02:00,38.0,37.0,29.73,West,270,12.0,17.0,95,-99.99,,,-99.99,,2013-03-11 04:02:00,
2013-03-10 23:12:00,38.0,36.0,29.73,West,270,12.0,21.0,95,-99.99,,,-99.99,,2013-03-11 04:12:00,
2013-03-10 23:22:00,38.0,36.0,29.73,WSW,247,11.0,16.0,96,-99.99,,,-99.99,,2013-03-11 04:22:00,
2013-03-10 23:32:00,37.0,36.0,29.73,West,270,12.0,18.0,96,-99.99,,,-99.99,,2013-03-11 04:32:00,
2013-03-10 23:42:00,37.0,36.0,29.74,WNW,292,12.0,18.0,97,-99.99,,,-99.99,,2013-03-11 04:42:00,
2013-03-10 23:52:00,36.0,36.0,29.75,West,270,11.0,16.0,97,-99.99,,,-99.99,,2013-03-11 04:52:00,